Location: S�tio Afonso Gruber
(26.1760°S, 49.5250°W)
Time: 21:41:38
(UTC+00:00)

Cosmos 2016 Rocket - Pass Details

Date: 03 October 2020
Orbit: 946 x 1001 km, 83.0° (Epoch: 27 October)

Event Time Altitude Azimuth Distance (km) Brightness Sun altitude
Rises 06:14:06 0° 37° (NE) 3,634 7.1 -35.5°
Reaches altitude 10° 06:17:28 10° 56° (NE) 2,708 6.6 -34.9°
Maximum altitude 06:21:21 17° 95° (E) 2,235 6.5 -34.1°
Drops below altitude 10° 06:25:16 10° 134° (SE) 2,751 7.1 -33.3°
Sets 06:28:42 0° 152° (SSE) 3,718 7.7 -32.6°
